Location: S�tio Afonso Gruber
(26.1760°S, 49.5250°W)
Time: 23:11:27
(UTC+00:00)

ASTRO E2 - Pass Details

Date: 07 June 2020
Orbit: 510 x 516 km, 31.4° (Epoch: 13 July)

Event Time Altitude Azimuth Distance (km) Brightness Sun altitude
Exits shadow 08:00:21 33° 128° (SE) 890 4.1 -26.3°
Drops below altitude 10° 08:02:44 10° 114° (ESE) 1,748 6.0 -25.8°
Sets 08:05:01 0° 110° (ESE) 2,637 7.2 -25.3°
